Weather History for Key West NAF, FL

Change the Weather History Date:

Tuesday, June 25, 2013

  Actual Average Record
Temperature  
Mean Temperature 84 °F -  
Max Temperature 90 °F 88 °F 93 °F (2007)
Min Temperature 78 °F 78 °F 69 °F (1951)
Cooling Degree Days 19    
Growing Degree Days 34 (Base 50)    
Moisture  
Dew Point 75 °F    
Average Humidity 74    
Maximum Humidity 84    
Minimum Humidity 65    
Precipitation  
Precipitation 0.00 in - - ()
Sea Level Pressure  
Sea Level Pressure 30.06 in    
Wind  
Wind Speed 10 mph (East)    
Max Wind Speed 15 mph    
Max Gust Speed 21 mph    
Visibility 10 miles    
Events Thunderstorm    
Averages and records for this station are not official NWS values.
T = Trace of Precipitation, MM = Missing Value Source: NWS Daily Summary

Daily Weather History Graph

Daily Weather History Graph

Search for Another Location

Airport:

Trip Planner

Search our weather history database for the weather conditions in past years. The results will help you decide how hot, cold, wet, or windy it might be!

Date:

Astronomy

Jun. 25, 2013 Rise Set
Actual Time 6:39 AM EDT 8:19 PM EDT
Civil Twilight 6:14 AM EDT 8:44 PM EDT
Nautical Twilight 5:43 AM EDT 9:15 PM EDT
Astronomical Twilight 5:11 AM EDT 9:47 PM EDT
Moon 10:24 PM EDT (6/25) 9:01 AM EDT (6/25)
Length of Visible Light 14h 30m
Length of Day
13h 39m
Waning Gibbous, 93% of the Moon is Illuminated
Jun 25
Waning Gibbous
Jun 30
Last Quarter
Jul 8
New
Jul 15
First Quarter
Jul 22
Full

Hourly Weather History & Observations

Time (EDT) Temp. Heat Index Dew Point Humidity Pressure Visibility Wind Dir Wind Speed Gust Speed Precip Events Conditions
12:53 AM 82.9 °F 89.4 °F 73.9 °F 74% 30.09 in 10.0 mi East 10.4 mph - N/A   Partly Cloudy
1:53 AM 82.9 °F 89.4 °F 73.9 °F 74% 30.09 in 10.0 mi East 10.4 mph - N/A   Scattered Clouds
2:53 AM 78.1 °F - 72.0 °F 81% 30.06 in 10.0 mi Calm Calm - 0.00 in   Partly Cloudy
3:19 AM 80.6 °F 86.2 °F 75.2 °F 84% 30.06 in 10.0 mi East 6.9 mph - N/A Thunderstorm Thunderstorm
3:43 AM 82.4 °F 89.5 °F 75.2 °F 79% 30.06 in 10.0 mi East 9.2 mph - N/A   Clear
3:53 AM 82.0 °F 88.6 °F 75.0 °F 79% 30.06 in 10.0 mi East 6.9 mph - N/A   Scattered Clouds
4:09 AM 82.4 °F 88.2 °F 73.4 °F 74% 30.06 in 10.0 mi East 10.4 mph - N/A   Mostly Cloudy
4:17 AM 82.4 °F 87.2 °F 71.6 °F 70% 30.06 in 10.0 mi East 10.4 mph - N/A   Mostly Cloudy
4:53 AM 82.0 °F 89.4 °F 75.9 °F 82% 30.06 in 10.0 mi ENE 5.8 mph - N/A   Partly Cloudy
6:53 AM 82.0 °F 88.6 °F 75.0 °F 79% 30.05 in 10.0 mi ENE 5.8 mph - N/A   Mostly Cloudy
7:53 AM 82.9 °F 89.4 °F 73.9 °F 74% 30.06 in 10.0 mi East 10.4 mph - N/A   Mostly Cloudy
8:53 AM 84.0 °F 91.9 °F 75.0 °F 74% 30.07 in 10.0 mi ESE 9.2 mph - N/A   Mostly Cloudy
9:53 AM 86.0 °F 93.8 °F 73.9 °F 67% 30.07 in 10.0 mi ESE 13.8 mph - N/A   Mostly Cloudy
10:53 AM 88.0 °F 98.5 °F 75.9 °F 67% 30.09 in 10.0 mi East 11.5 mph - N/A   Mostly Cloudy
11:53 AM 88.0 °F 97.5 °F 75.0 °F 65% 30.09 in 10.0 mi East 11.5 mph 20.7 mph N/A   Mostly Cloudy
12:53 PM 88.0 °F 98.5 °F 75.9 °F 67% 30.08 in 10.0 mi ESE 13.8 mph - N/A   Mostly Cloudy
1:53 PM 89.1 °F 101.4 °F 77.0 °F 67% 30.08 in 10.0 mi East 10.4 mph - N/A   Mostly Cloudy
2:53 PM 90.0 °F 102.5 °F 77.0 °F 65% 30.06 in 10.0 mi ESE 13.8 mph - N/A   Mostly Cloudy
3:53 PM 87.8 °F 97.6 °F 75.2 °F 66% 30.04 in 10.0 mi ESE 11.5 mph - N/A   Mostly Cloudy
4:53 PM 86.0 °F 95.1 °F 75.0 °F 70% 30.01 in 10.0 mi ESE 9.2 mph - N/A   Mostly Cloudy
5:53 PM 87.1 °F 95.4 °F 73.9 °F 65% 30.01 in 10.0 mi ESE 11.5 mph - N/A   Mostly Cloudy
6:53 PM 84.0 °F 91.9 °F 75.0 °F 74% 30.03 in 10.0 mi ENE 9.2 mph - N/A   Mostly Cloudy
7:53 PM 84.0 °F 92.6 °F 75.9 °F 76% 30.03 in 10.0 mi East 8.1 mph - N/A   Mostly Cloudy
8:53 PM 82.9 °F 90.2 °F 75.0 °F 77% 30.02 in 10.0 mi East 11.5 mph - N/A   Mostly Cloudy
9:53 PM 82.0 °F 89.4 °F 75.9 °F 82% 30.02 in 7.0 mi ESE 9.2 mph - N/A   Mostly Cloudy
10:53 PM 82.9 °F 90.8 °F 75.9 °F 79% 30.04 in 10.0 mi ESE 13.8 mph - N/A   Scattered Clouds
11:15 PM 82.4 °F 89.5 °F 75.2 °F 79% 30.05 in 10.0 mi ESE 15.0 mph - N/A   Mostly Cloudy
11:28 PM 82.4 °F 89.5 °F 75.2 °F 79% 30.05 in 4.0 mi ESE 15.0 mph - N/A   Haze
11:53 PM 82.9 °F 90.2 °F 75.0 °F 77% 30.05 in 10.0 mi ESE 11.5 mph 20.7 mph N/A   Mostly Cloudy